Time,TemperatureF,DewpointF,PressureIn,WindDirection,WindDirectionDegrees,WindSpeedMPH,WindSpeedGustMPH,Humidity,HourlyPrecipIn,Conditions,Clouds,dailyrainin,SoftwareType,DateUTC
2013-03-28 00:00:00,60.5,29.7,29.72,SW,222,6.0,9.0,31,0.00,CLR,,0.00,WeatherDisplay:10.37,2013-03-28 07:00:00,
2013-03-28 00:10:00,61.0,29.3,29.72,SW,223,9.0,14.0,30,0.00,CLR,,0.00,WeatherDisplay:10.37,2013-03-28 07:10:00,
2013-03-28 00:15:00,60.9,31.6,29.73,SW,214,10.0,16.0,33,0.00,CLR,,0.00,WeatherDisplay:10.37,2013-03-28 07:15:00,
2013-03-28 00:25:00,59.8,33.5,29.72,SSW,206,9.0,15.0,37,0.00,CLR,,0.00,WeatherDisplay:10.37,2013-03-28 07:25:00,
2013-03-28 00:30:00,60.1,32.3,29.72,SSW,209,8.0,13.0,35,0.00,CLR,,0.00,WeatherDisplay:10.37,2013-03-28 07:30:00,
2013-03-28 00:40:00,59.8,33.5,29.72,SW,223,7.0,15.0,37,0.00,CLR,,0.00,WeatherDisplay:10.37,2013-03-28 07:40:00,
2013-03-28 00:45:00,59.8,32.8,29.72,SW,222,7.0,10.0,36,0.00,CLR,,0.00,WeatherDisplay:10.37,2013-03-28 07:45:00,
2013-03-28 00:50:00,59.9,33.5,29.72,SSW,202,5.0,10.0,37,0.00,CLR,,0.00,WeatherDisplay:10.37,2013-03-28 07:50:00,
2013-03-28 00:55:00,59.5,32.5,29.72,SSW,193,1.0,12.0,36,0.00,CLR,,0.00,WeatherDisplay:10.37,2013-03-28 07:55:00,
2013-03-28 01:00:00,60.0,31.5,29.72,SSW,197,2.0,10.0,34,0.00,CLR,,0.00,WeatherDisplay:10.37,2013-03-28 08:00:00,
2013-03-28 01:05:00,60.6,29.8,29.72,WSW,252,3.0,12.0,31,0.00,CLR,,0.00,WeatherDisplay:10.37,2013-03-28 08:05:00,
2013-03-28 01:10:00,60.4,31.9,29.72,WSW,255,0.0,7.0,34,0.00,CLR,,0.00,WeatherDisplay:10.37,2013-03-28 08:10:00,
2013-03-28 01:15:00,60.0,32.2,29.73,SW,221,3.0,7.0,35,0.00,CLR,,0.00,WeatherDisplay:10.37,2013-03-28 08:15:00,
2013-03-28 01:20:00,59.7,32.7,29.72,SSW,210,2.0,6.0,36,0.00,CLR,,0.00,WeatherDisplay:10.37,2013-03-28 08:20:00,
2013-03-28 01:25:00,59.6,31.9,29.72,SSW,211,3.0,10.0,35,0.00,CLR,,0.00,WeatherDisplay:10.37,2013-03-28 08:25:00,
2013-03-28 01:30:00,59.5,31.8,29.72,SW,215,6.0,10.0,35,0.00,CLR,,0.00,WeatherDisplay:10.37,2013-03-28 08:30:00,
2013-03-28 01:35:00,59.6,32.6,29.72,SSW,204,3.0,12.0,36,0.00,CLR,,0.00,WeatherDisplay:10.37,2013-03-28 08:35:00,
2013-03-28 01:40:00,59.3,32.3,29.72,SSW,204,2.0,10.0,36,0.00,CLR,,0.00,WeatherDisplay:10.37,2013-03-28 08:40:00,
2013-03-28 01:45:00,59.0,34.7,29.72,SSW,199,9.0,16.0,40,0.00,CLR,,0.00,WeatherDisplay:10.37,2013-03-28 08:45:00,
2013-03-28 01:50:00,59.5,33.9,29.72,SSW,204,2.0,12.0,38,0.00,CLR,,0.00,WeatherDisplay:10.37,2013-03-28 08:50:00,
2013-03-28 01:55:00,59.3,33.7,29.72,SSW,212,5.0,8.0,38,0.00,CLR,,0.00,WeatherDisplay:10.37,2013-03-28 08:55:00,
2013-03-28 02:00:00,59.2,33.6,29.72,SSW,212,1.0,4.0,38,0.00,CLR,,0.00,WeatherDisplay:10.37,2013-03-28 09:00:00,
2013-03-28 02:05:00,58.9,33.3,29.72,SSW,212,0.0,3.0,38,0.00,CLR,,0.00,WeatherDisplay:10.37,2013-03-28 09:05:00,
2013-03-28 02:10:00,58.6,33.0,29.72,SSW,212,1.0,3.0,38,0.00,CLR,,0.00,WeatherDisplay:10.37,2013-03-28 09:10:00,
2013-03-28 02:15:00,58.1,33.2,29.73,SSW,212,2.0,4.0,39,0.00,CLR,,0.00,WeatherDisplay:10.37,2013-03-28 09:15:00,
2013-03-28 02:20:00,58.3,32.8,29.73,SSW,212,5.0,6.0,38,0.00,CLR,,0.00,WeatherDisplay:10.37,2013-03-28 09:20:00,
2013-03-28 02:25:00,58.9,32.7,29.73,SSW,212,3.0,7.0,37,0.00,CLR,,0.00,WeatherDisplay:10.37,2013-03-28 09:25:00,
2013-03-28 02:30:00,60.1,33.0,29.72,SW,214,5.0,7.0,36,0.00,CLR,,0.00,WeatherDisplay:10.37,2013-03-28 09:30:00,
2013-03-28 02:35:00,59.9,33.5,29.72,SW,215,0.0,3.0,37,0.00,CLR,,0.00,WeatherDisplay:10.37,2013-03-28 09:35:00,
2013-03-28 02:40:00,59.5,32.5,29.72,SW,215,0.0,0.0,36,0.00,CLR,,0.00,WeatherDisplay:10.37,2013-03-28 09:40:00,
2013-03-28 02:45:00,59.3,33.0,29.73,SW,215,0.0,0.0,37,0.00,CLR,,0.00,WeatherDisplay:10.37,2013-03-28 09:45:00,
2013-03-28 02:50:00,59.0,32.1,29.73,SW,214,1.0,7.0,36,0.00,CLR,,0.00,WeatherDisplay:10.37,2013-03-28 09:50:00,
2013-03-28 02:55:00,59.6,31.9,29.72,SW,214,2.0,7.0,35,0.00,CLR,,0.00,WeatherDisplay:10.37,2013-03-28 09:55:00,
2013-03-28 03:00:00,59.7,32.6,29.72,SW,214,3.0,5.0,36,0.00,CLR,,0.00,WeatherDisplay:10.37,2013-03-28 10:00:00,
2013-03-28 03:05:00,59.3,31.6,29.73,SW,214,3.0,5.0,35,0.00,CLR,,0.00,WeatherDisplay:10.37,2013-03-28 10:05:00,
2013-03-28 03:10:00,59.2,31.5,29.72,SW,214,0.0,2.0,35,0.00,CLR,,0.00,WeatherDisplay:10.37,2013-03-28 10:10:00,
2013-03-28 03:15:00,58.9,32.0,29.72,SW,214,0.0,0.0,36,0.00,CLR,,0.00,WeatherDisplay:10.37,2013-03-28 10:15:00,
2013-03-28 03:20:00,58.3,31.4,29.72,SW,214,0.0,4.0,36,0.00,CLR,,0.00,WeatherDisplay:10.37,2013-03-28 10:20:00,
2013-03-28 03:25:00,58.2,32.7,29.73,SW,214,3.0,6.0,38,0.00,CLR,,0.00,WeatherDisplay:10.37,2013-03-28 10:25:00,
2013-03-28 03:30:00,58.3,32.8,29.73,SW,214,1.0,2.0,38,0.00,CLR,,0.00,WeatherDisplay:10.37,2013-03-28 10:30:00,
2013-03-28 03:40:00,57.2,32.5,29.74,SW,214,5.0,7.0,39,0.00,CLR,,0.00,WeatherDisplay:10.37,2013-03-28 10:40:00,
2013-03-28 03:45:00,57.4,32.6,29.74,SW,214,7.0,12.0,39,0.00,CLR,,0.00,WeatherDisplay:10.37,2013-03-28 10:45:00,
2013-03-28 03:50:00,58.6,33.7,29.73,SW,214,6.0,12.0,39,0.00,CLR,,0.00,WeatherDisplay:10.37,2013-03-28 10:50:00,
2013-03-28 03:55:00,58.6,33.7,29.73,SSW,205,6.0,7.0,39,0.00,CLR,,0.00,WeatherDisplay:10.37,2013-03-28 10:55:00,
2013-03-28 04:00:00,58.9,32.0,29.73,SSW,203,6.0,12.0,36,0.00,CLR,,0.00,WeatherDisplay:10.37,2013-03-28 11:00:00,
2013-03-28 04:10:00,58.0,35.6,29.73,SSW,206,7.0,12.0,43,0.00,CLR,,0.00,WeatherDisplay:10.37,2013-03-28 11:10:00,
2013-03-28 04:15:00,58.0,35.0,29.73,SSW,199,8.0,14.0,42,0.00,CLR,,0.00,WeatherDisplay:10.37,2013-03-28 11:15:00,
2013-03-28 04:20:00,58.5,33.6,29.73,SSW,197,8.0,12.0,39,0.00,CLR,,0.00,WeatherDisplay:10.37,2013-03-28 11:20:00,
2013-03-28 04:25:00,58.2,32.7,29.73,SSW,203,8.0,10.0,38,0.00,CLR,,0.00,WeatherDisplay:10.37,2013-03-28 11:25:00,
2013-03-28 04:30:00,58.0,31.2,29.73,SSW,213,8.0,12.0,36,0.00,CLR,,0.00,WeatherDisplay:10.37,2013-03-28 11:30:00,
2013-03-28 04:40:00,58.1,34.5,29.74,SW,216,10.0,13.0,41,0.00,CLR,,0.00,WeatherDisplay:10.37,2013-03-28 11:40:00,
2013-03-28 04:45:00,58.1,34.5,29.74,SSW,213,1.0,10.0,41,0.00,CLR,,0.00,WeatherDisplay:10.37,2013-03-28 11:45:00,
2013-03-28 04:50:00,57.5,32.7,29.74,SW,214,7.0,10.0,39,0.00,CLR,,0.00,WeatherDisplay:10.37,2013-03-28 11:50:00,
2013-03-28 05:00:00,56.9,32.2,29.74,SW,215,3.0,6.0,39,0.00,CLR,,0.00,WeatherDisplay:10.37,2013-03-28 12:00:00,
2013-03-28 05:05:00,57.3,31.9,29.74,SW,215,6.0,9.0,38,0.00,CLR,,0.00,WeatherDisplay:10.37,2013-03-28 12:05:00,
2013-03-28 05:15:00,58.1,30.5,29.74,SW,215,2.0,8.0,35,0.00,CLR,,0.00,WeatherDisplay:10.37,2013-03-28 12:15:00,
2013-03-28 05:20:00,57.6,30.8,29.74,SW,215,3.0,6.0,36,0.00,CLR,,0.00,WeatherDisplay:10.37,2013-03-28 12:20:00,
2013-03-28 05:30:00,57.2,31.1,29.75,SW,218,3.0,7.0,37,0.00,CLR,,0.00,WeatherDisplay:10.37,2013-03-28 12:30:00,
2013-03-28 05:35:00,58.1,31.3,29.75,SW,223,8.0,13.0,36,0.00,CLR,,0.00,WeatherDisplay:10.37,2013-03-28 12:35:00,
2013-03-28 05:40:00,59.2,30.9,29.74,SW,229,6.0,9.0,34,0.00,CLR,,0.00,WeatherDisplay:10.37,2013-03-28 12:40:00,
2013-03-28 05:45:00,59.6,30.4,29.75,WSW,238,0.0,3.0,33,0.00,CLR,,0.00,WeatherDisplay:10.37,2013-03-28 12:45:00,
2013-03-28 05:50:00,59.2,30.8,29.74,WSW,244,0.0,0.0,34,0.00,CLR,,0.00,WeatherDisplay:10.37,2013-03-28 12:50:00,
2013-03-28 05:55:00,58.6,31.0,29.75,WSW,244,0.0,0.0,35,0.00,CLR,,0.00,WeatherDisplay:10.37,2013-03-28 12:55:00,
2013-03-28 06:00:00,57.2,31.1,29.75,WSW,244,3.0,5.0,37,0.00,CLR,,0.00,WeatherDisplay:10.37,2013-03-28 13:00:00,
2013-03-28 06:05:00,56.0,30.7,29.76,WSW,244,2.0,4.0,38,0.00,CLR,,0.00,WeatherDisplay:10.37,2013-03-28 13:05:00,
2013-03-28 06:10:00,55.7,30.5,29.76,WSW,244,0.0,4.0,38,0.00,CLR,,0.00,WeatherDisplay:10.37,2013-03-28 13:10:00,
2013-03-28 06:15:00,55.7,30.5,29.76,WSW,244,1.0,4.0,38,0.00,CLR,,0.00,WeatherDisplay:10.37,2013-03-28 13:15:00,
2013-03-28 06:20:00,55.9,30.6,29.77,WSW,244,0.0,2.0,38,0.00,CLR,,0.00,WeatherDisplay:10.37,2013-03-28 13:20:00,
2013-03-28 06:25:00,55.9,30.6,29.77,WSW,244,0.0,0.0,38,0.00,CLR,,0.00,WeatherDisplay:10.37,2013-03-28 13:25:00,
2013-03-28 06:30:00,55.6,29.7,29.77,WSW,244,0.0,3.0,37,0.00,CLR,,0.00,WeatherDisplay:10.37,2013-03-28 13:30:00,
2013-03-28 06:35:00,55.1,29.9,29.78,WSW,244,0.0,0.0,38,0.00,CLR,,0.00,WeatherDisplay:10.37,2013-03-28 13:35:00,
2013-03-28 06:40:00,54.5,30.7,29.78,WSW,244,0.0,0.0,40,0.00,CLR,,0.00,WeatherDisplay:10.37,2013-03-28 13:40:00,
2013-03-28 06:45:00,54.2,30.4,29.79,WSW,244,0.0,0.0,40,0.00,CLR,,0.00,WeatherDisplay:10.37,2013-03-28 13:45:00,
2013-03-28 06:55:00,54.7,30.8,29.80,WSW,244,1.0,4.0,40,0.00,CLR,,0.00,WeatherDisplay:10.37,2013-03-28 13:55:00,
2013-03-28 07:00:00,54.7,30.2,29.80,WSW,244,0.0,0.0,39,0.00,CLR,,0.00,WeatherDisplay:10.37,2013-03-28 14:00:00,
2013-03-28 07:05:00,54.2,30.4,29.80,WSW,244,3.0,5.0,40,0.00,CLR,,0.00,WeatherDisplay:10.37,2013-03-28 14:05:00,
2013-03-28 07:10:00,54.8,30.3,29.80,WSW,244,2.0,5.0,39,0.00,CLR,,0.00,WeatherDisplay:10.37,2013-03-28 14:10:00,
2013-03-28 07:15:00,55.1,29.9,29.80,WSW,244,3.0,5.0,38,0.00,CLR,,0.00,WeatherDisplay:10.37,2013-03-28 14:15:00,
2013-03-28 07:20:00,55.3,30.7,29.80,WSW,244,3.0,5.0,39,0.00,CLR,,0.00,WeatherDisplay:10.37,2013-03-28 14:20:00,
2013-03-28 07:25:00,54.7,28.9,29.81,WSW,244,5.0,6.0,37,0.00,CLR,,0.00,WeatherDisplay:10.37,2013-03-28 14:25:00,
2013-03-28 07:30:00,54.1,29.7,29.81,WSW,245,3.0,6.0,39,0.00,CLR,,0.00,WeatherDisplay:10.37,2013-03-28 14:30:00,
2013-03-28 07:40:00,53.5,30.4,29.82,WSW,246,1.0,4.0,41,0.00,CLR,,0.00,WeatherDisplay:10.37,2013-03-28 14:40:00,
2013-03-28 07:45:00,53.9,30.1,29.82,SW,223,2.0,3.0,40,0.00,CLR,,0.00,WeatherDisplay:10.37,2013-03-28 14:45:00,
2013-03-28 07:50:00,54.4,29.9,29.82,South,183,1.0,4.0,39,0.00,CLR,,0.00,WeatherDisplay:10.37,2013-03-28 14:50:00,
2013-03-28 07:55:00,55.0,30.5,29.82,WSW,257,2.0,7.0,39,0.00,CLR,,0.00,WeatherDisplay:10.37,2013-03-28 14:55:00,
2013-03-28 08:00:00,55.6,30.4,29.83,WNW,291,0.0,2.0,38,0.00,CLR,,0.00,WeatherDisplay:10.37,2013-03-28 15:00:00,
2013-03-28 08:05:00,56.2,30.2,29.83,WNW,297,1.0,3.0,37,0.00,CLR,,0.00,WeatherDisplay:10.37,2013-03-28 15:05:00,
2013-03-28 08:10:00,56.3,31.0,29.83,WNW,297,2.0,3.0,38,0.00,CLR,,0.00,WeatherDisplay:10.37,2013-03-28 15:10:00,
2013-03-28 08:15:00,56.6,30.6,29.83,WNW,297,2.0,4.0,37,0.00,CLR,,0.00,WeatherDisplay:10.37,2013-03-28 15:15:00,
2013-03-28 08:20:00,57.0,31.0,29.83,WNW,297,2.0,4.0,37,0.00,CLR,,0.00,WeatherDisplay:10.37,2013-03-28 15:20:00,
2013-03-28 08:25:00,57.5,30.7,29.83,WNW,297,2.0,4.0,36,0.00,CLR,,0.00,WeatherDisplay:10.37,2013-03-28 15:25:00,
2013-03-28 08:30:00,58.1,31.2,29.83,WNW,297,3.0,5.0,36,0.00,CLR,,0.00,WeatherDisplay:10.37,2013-03-28 15:30:00,
2013-03-28 08:35:00,58.4,30.8,29.84,WNW,298,3.0,5.0,35,0.00,CLR,,0.00,WeatherDisplay:10.37,2013-03-28 15:35:00,
2013-03-28 08:40:00,58.7,31.1,29.83,WNW,298,3.0,5.0,35,0.00,CLR,,0.00,WeatherDisplay:10.37,2013-03-28 15:40:00,
2013-03-28 08:45:00,58.9,31.3,29.84,WNW,298,1.0,5.0,35,0.00,CLR,,0.00,WeatherDisplay:10.37,2013-03-28 15:45:00,
2013-03-28 08:50:00,59.3,31.6,29.84,WNW,297,3.0,5.0,35,0.00,CLR,,0.00,WeatherDisplay:10.37,2013-03-28 15:50:00,
2013-03-28 09:00:00,59.6,31.2,29.84,WNW,297,2.0,4.0,34,0.00,CLR,,0.00,WeatherDisplay:10.37,2013-03-28 16:00:00,
2013-03-28 09:05:00,60.3,31.8,29.84,WNW,297,0.0,2.0,34,0.00,CLR,,0.00,WeatherDisplay:10.37,2013-03-28 16:05:00,
2013-03-28 09:10:00,61.0,30.9,29.84,WNW,297,0.0,0.0,32,0.00,CLR,,0.00,WeatherDisplay:10.37,2013-03-28 16:10:00,
2013-03-28 09:15:00,61.6,30.6,29.84,WNW,297,0.0,0.0,31,0.00,CLR,,0.00,WeatherDisplay:10.37,2013-03-28 16:15:00,
2013-03-28 09:20:00,62.0,31.0,29.84,WNW,297,3.0,6.0,31,0.00,CLR,,0.00,WeatherDisplay:10.37,2013-03-28 16:20:00,
2013-03-28 09:25:00,61.6,30.6,29.84,WNW,298,2.0,5.0,31,0.00,CLR,,0.00,WeatherDisplay:10.37,2013-03-28 16:25:00,
2013-03-28 09:30:00,62.1,30.3,29.85,WNW,298,3.0,5.0,30,0.00,CLR,,0.00,WeatherDisplay:10.37,2013-03-28 16:30:00,
2013-03-28 09:40:00,62.4,30.5,29.85,WNW,297,1.0,4.0,30,0.00,CLR,,0.00,WeatherDisplay:10.37,2013-03-28 16:40:00,
2013-03-28 09:45:00,62.9,31.0,29.85,WNW,297,2.0,4.0,30,0.00,CLR,,0.00,WeatherDisplay:10.37,2013-03-28 16:45:00,
2013-03-28 09:50:00,63.5,30.6,29.85,WNW,298,0.0,5.0,29,0.00,CLR,,0.00,WeatherDisplay:10.37,2013-03-28 16:50:00,
2013-03-28 09:55:00,64.3,29.6,29.85,WNW,298,1.0,6.0,27,0.00,CLR,,0.00,WeatherDisplay:10.37,2013-03-28 16:55:00,
2013-03-28 10:00:00,64.2,30.4,29.85,WNW,297,1.0,6.0,28,0.00,CLR,,0.00,WeatherDisplay:10.37,2013-03-28 17:00:00,
2013-03-28 10:05:00,64.8,30.0,29.85,WNW,297,1.0,5.0,27,0.00,CLR,,0.00,WeatherDisplay:10.37,2013-03-28 17:05:00,
2013-03-28 10:10:00,64.7,30.8,29.85,WNW,297,3.0,6.0,28,0.00,CLR,,0.00,WeatherDisplay:10.37,2013-03-28 17:10:00,
2013-03-28 10:15:00,64.7,30.8,29.85,WNW,297,2.0,4.0,28,0.00,CLR,,0.00,WeatherDisplay:10.37,2013-03-28 17:15:00,
2013-03-28 10:20:00,65.5,30.6,29.85,WNW,298,2.0,4.0,27,0.00,CLR,,0.00,WeatherDisplay:10.37,2013-03-28 17:20:00,
2013-03-28 10:25:00,66.3,30.3,29.84,WNW,298,2.0,4.0,26,0.00,CLR,,0.00,WeatherDisplay:10.37,2013-03-28 17:25:00,
2013-03-28 10:30:00,66.4,30.4,29.85,WNW,298,1.0,5.0,26,0.00,CLR,,0.00,WeatherDisplay:10.37,2013-03-28 17:30:00,
2013-03-28 10:35:00,66.8,30.8,29.84,WNW,298,1.0,5.0,26,0.00,CLR,,0.00,WeatherDisplay:10.37,2013-03-28 17:35:00,
2013-03-28 10:40:00,67.6,30.5,29.84,WNW,298,3.0,5.0,25,0.00,CLR,,0.00,WeatherDisplay:10.37,2013-03-28 17:40:00,
2013-03-28 10:45:00,67.4,31.3,29.84,WNW,298,0.0,4.0,26,0.00,CLR,,0.00,WeatherDisplay:10.37,2013-03-28 17:45:00,
2013-03-28 10:50:00,67.8,29.7,29.84,WNW,298,2.0,4.0,24,0.00,CLR,,0.00,WeatherDisplay:10.37,2013-03-28 17:50:00,
2013-03-28 10:55:00,67.9,29.7,29.84,WNW,298,0.0,5.0,24,0.00,CLR,,0.00,WeatherDisplay:10.37,2013-03-28 17:55:00,
2013-03-28 11:00:00,67.9,30.7,29.84,WNW,297,0.0,3.0,25,0.00,CLR,,0.00,WeatherDisplay:10.37,2013-03-28 18:00:00,
2013-03-28 11:10:00,69.1,29.7,29.84,WNW,297,1.0,4.0,23,0.00,CLR,,0.00,WeatherDisplay:10.37,2013-03-28 18:10:00,
2013-03-28 11:15:00,69.4,28.9,29.84,WNW,298,0.0,3.0,22,0.00,CLR,,0.00,WeatherDisplay:10.37,2013-03-28 18:15:00,
2013-03-28 11:20:00,70.1,28.3,29.84,WNW,303,2.0,5.0,21,0.00,CLR,,0.00,WeatherDisplay:10.37,2013-03-28 18:20:00,
2013-03-28 11:25:00,70.4,28.6,29.84,NW,310,1.0,3.0,21,0.00,CLR,,0.00,WeatherDisplay:10.37,2013-03-28 18:25:00,
2013-03-28 11:30:00,70.6,29.9,29.84,NW,313,1.0,4.0,22,0.00,CLR,,0.00,WeatherDisplay:10.37,2013-03-28 18:30:00,
2013-03-28 11:35:00,70.4,32.9,29.84,North,2,3.0,6.0,25,0.00,CLR,,0.00,WeatherDisplay:10.37,2013-03-28 18:35:00,
2013-03-28 11:40:00,70.4,30.8,29.84,NNE,29,1.0,4.0,23,0.00,CLR,,0.00,WeatherDisplay:10.37,2013-03-28 18:40:00,
2013-03-28 11:45:00,71.2,30.4,29.83,NE,38,0.0,5.0,22,0.00,CLR,,0.00,WeatherDisplay:10.37,2013-03-28 18:45:00,
2013-03-28 11:50:00,71.8,30.9,29.83,NE,38,0.0,3.0,22,0.00,CLR,,0.00,WeatherDisplay:10.37,2013-03-28 18:50:00,
2013-03-28 11:55:00,72.5,31.5,29.83,NE,38,1.0,6.0,22,0.00,CLR,,0.00,WeatherDisplay:10.37,2013-03-28 18:55:00,
2013-03-28 12:00:00,72.8,30.6,29.82,NE,40,1.0,6.0,21,0.00,CLR,,0.00,WeatherDisplay:10.37,2013-03-28 19:00:00,
2013-03-28 12:05:00,72.4,30.2,29.82,NE,40,0.0,2.0,21,0.00,CLR,,0.00,WeatherDisplay:10.37,2013-03-28 19:05:00,
2013-03-28 12:10:00,72.2,30.0,29.82,NNW,339,6.0,10.0,21,0.00,CLR,,0.00,WeatherDisplay:10.37,2013-03-28 19:10:00,
2013-03-28 12:15:00,71.5,30.6,29.82,SW,236,7.0,10.0,22,0.00,CLR,,0.00,WeatherDisplay:10.37,2013-03-28 19:15:00,
2013-03-28 12:20:00,71.4,30.5,29.82,SW,230,3.0,8.0,22,0.00,CLR,,0.00,WeatherDisplay:10.37,2013-03-28 19:20:00,
2013-03-28 12:25:00,71.5,30.7,29.82,SW,231,1.0,4.0,22,0.00,CLR,,0.00,WeatherDisplay:10.37,2013-03-28 19:25:00,
2013-03-28 12:30:00,71.8,30.9,29.82,SW,236,5.0,8.0,22,0.00,CLR,,0.00,WeatherDisplay:10.37,2013-03-28 19:30:00,
2013-03-28 12:35:00,72.9,31.8,29.82,SSW,212,1.0,13.0,22,0.00,CLR,,0.00,WeatherDisplay:10.37,2013-03-28 19:35:00,
2013-03-28 12:45:00,73.0,29.5,29.82,SSW,193,0.0,7.0,20,0.00,CLR,,0.00,WeatherDisplay:10.37,2013-03-28 19:45:00,
2013-03-28 12:50:00,73.7,30.1,29.81,South,188,1.0,8.0,20,0.00,CLR,,0.00,WeatherDisplay:10.37,2013-03-28 19:50:00,
2013-03-28 12:55:00,74.7,30.9,29.81,SSE,158,5.0,9.0,20,0.00,CLR,,0.00,WeatherDisplay:10.37,2013-03-28 19:55:00,
2013-03-28 13:00:00,74.6,29.6,29.80,South,187,9.0,13.0,19,0.00,CLR,,0.00,WeatherDisplay:10.37,2013-03-28 20:00:00,
2013-03-28 13:05:00,74.0,30.4,29.80,South,191,6.0,12.0,20,0.00,CLR,,0.00,WeatherDisplay:10.37,2013-03-28 20:05:00,
2013-03-28 13:10:00,73.7,30.1,29.80,South,180,3.0,12.0,20,0.00,CLR,,0.00,WeatherDisplay:10.37,2013-03-28 20:10:00,
2013-03-28 13:15:00,74.3,29.4,29.80,SSE,154,5.0,14.0,19,0.00,CLR,,0.00,WeatherDisplay:10.37,2013-03-28 20:15:00,
2013-03-28 13:20:00,74.9,27.1,29.80,ESE,121,2.0,10.0,17,0.00,CLR,,0.00,WeatherDisplay:10.37,2013-03-28 20:20:00,
2013-03-28 13:25:00,75.5,27.6,29.80,SE,131,5.0,7.0,17,0.00,CLR,,0.00,WeatherDisplay:10.37,2013-03-28 20:25:00,
2013-03-28 13:30:00,76.2,26.7,29.80,SSE,150,7.0,16.0,16,0.00,CLR,,0.00,WeatherDisplay:10.37,2013-03-28 20:30:00,
2013-03-28 13:35:00,76.8,31.4,29.79,ESE,120,7.0,12.0,19,0.00,CLR,,0.00,WeatherDisplay:10.37,2013-03-28 20:35:00,
2013-03-28 13:40:00,76.1,32.1,29.79,ESE,102,6.0,10.0,20,0.00,CLR,,0.00,WeatherDisplay:10.37,2013-03-28 20:40:00,
2013-03-28 13:45:00,75.8,33.0,29.79,East,99,6.0,9.0,21,0.00,CLR,,0.00,WeatherDisplay:10.37,2013-03-28 20:45:00,
2013-03-28 13:50:00,76.1,33.3,29.78,ESE,118,2.0,6.0,21,0.00,CLR,,0.00,WeatherDisplay:10.37,2013-03-28 20:50:00,
2013-03-28 13:55:00,76.5,31.1,29.77,SE,125,2.0,6.0,19,0.00,CLR,,0.00,WeatherDisplay:10.37,2013-03-28 20:55:00,
2013-03-28 14:00:00,76.7,27.1,29.77,ESE,109,3.0,6.0,16,0.00,CLR,,0.00,WeatherDisplay:10.37,2013-03-28 21:00:00,
2013-03-28 14:10:00,77.2,27.5,29.77,SE,134,6.0,10.0,16,0.00,CLR,,0.00,WeatherDisplay:10.37,2013-03-28 21:10:00,
2013-03-28 14:15:00,77.5,26.1,29.77,South,187,9.0,20.0,15,0.00,CLR,,0.00,WeatherDisplay:10.37,2013-03-28 21:15:00,
2013-03-28 14:20:00,77.0,27.3,29.77,South,191,7.0,15.0,16,0.00,CLR,,0.00,WeatherDisplay:10.37,2013-03-28 21:20:00,
2013-03-28 14:25:00,77.1,25.8,29.77,South,176,5.0,16.0,15,0.00,CLR,,0.00,WeatherDisplay:10.37,2013-03-28 21:25:00,
2013-03-28 14:30:00,77.4,26.1,29.76,SSE,168,12.0,17.0,15,0.00,CLR,,0.00,WeatherDisplay:10.37,2013-03-28 21:30:00,
2013-03-28 14:40:00,78.4,26.9,29.75,SW,223,10.0,20.0,15,0.00,CLR,,0.00,WeatherDisplay:10.37,2013-03-28 21:40:00,
2013-03-28 14:45:00,77.8,24.8,29.75,SW,217,17.0,24.0,14,0.00,CLR,,0.00,WeatherDisplay:10.37,2013-03-28 21:45:00,
2013-03-28 14:50:00,77.4,26.1,29.75,SSW,209,13.0,25.0,15,0.00,CLR,,0.00,WeatherDisplay:10.37,2013-03-28 21:50:00,
2013-03-28 14:55:00,77.3,24.3,29.75,SSW,207,16.0,20.0,14,0.00,CLR,,0.00,WeatherDisplay:10.37,2013-03-28 21:55:00,
2013-03-28 15:00:00,77.2,24.2,29.75,SSW,209,15.0,20.0,14,0.00,CLR,,0.00,WeatherDisplay:10.37,2013-03-28 22:00:00,
2013-03-28 15:10:00,77.6,24.6,29.74,SSW,209,20.0,28.0,14,0.00,CLR,,0.00,WeatherDisplay:10.37,2013-03-28 22:10:00,
2013-03-28 15:20:00,77.9,24.8,29.74,SSW,211,15.0,22.0,14,0.00,CLR,,0.00,WeatherDisplay:10.37,2013-03-28 22:20:00,
2013-03-28 15:25:00,77.9,26.5,29.74,SW,217,17.0,23.0,15,0.00,CLR,,0.00,WeatherDisplay:10.37,2013-03-28 22:25:00,
2013-03-28 15:30:00,77.9,26.5,29.75,SW,216,16.0,22.0,15,0.00,CLR,,0.00,WeatherDisplay:10.37,2013-03-28 22:30:00,
2013-03-28 15:35:00,77.8,26.4,29.75,SSW,209,17.0,22.0,15,0.00,CLR,,0.00,WeatherDisplay:10.37,2013-03-28 22:35:00,
2013-03-28 15:40:00,77.5,26.2,29.75,SSW,210,14.0,20.0,15,0.00,CLR,,0.00,WeatherDisplay:10.37,2013-03-28 22:40:00,
2013-03-28 15:45:00,77.4,24.4,29.75,SW,218,18.0,23.0,14,0.00,CLR,,0.00,WeatherDisplay:10.37,2013-03-28 22:45:00,
2013-03-28 15:50:00,77.2,25.9,29.75,SW,214,16.0,25.0,15,0.00,CLR,,0.00,WeatherDisplay:10.37,2013-03-28 22:50:00,
2013-03-28 16:00:00,77.2,25.9,29.75,SSW,209,13.0,22.0,15,0.00,CLR,,0.00,WeatherDisplay:10.37,2013-03-28 23:00:00,
2013-03-28 16:10:00,77.0,24.1,29.75,SW,220,15.0,21.0,14,0.00,CLR,,0.00,WeatherDisplay:10.37,2013-03-28 23:10:00,
2013-03-28 16:15:00,77.2,25.9,29.76,SW,228,20.0,27.0,15,0.00,CLR,,0.00,WeatherDisplay:10.37,2013-03-28 23:15:00,
2013-03-28 16:20:00,76.6,25.4,29.75,SW,234,20.0,28.0,15,0.00,CLR,,0.00,WeatherDisplay:10.37,2013-03-28 23:20:00,
2013-03-28 16:25:00,76.3,28.3,29.76,SW,233,20.0,27.0,17,0.00,CLR,,0.00,WeatherDisplay:10.37,2013-03-28 23:25:00,
2013-03-28 16:35:00,75.8,27.8,29.76,SW,224,17.0,23.0,17,0.00,CLR,,0.00,WeatherDisplay:10.37,2013-03-28 23:35:00,
2013-03-28 16:40:00,75.4,28.9,29.77,SW,232,16.0,21.0,18,0.00,CLR,,0.00,WeatherDisplay:10.37,2013-03-28 23:40:00,
2013-03-28 16:45:00,75.3,28.8,29.77,WSW,239,15.0,22.0,18,0.00,CLR,,0.00,WeatherDisplay:10.37,2013-03-28 23:45:00,
2013-03-28 16:50:00,76.1,29.5,29.76,SW,234,15.0,21.0,18,0.00,CLR,,0.00,WeatherDisplay:10.37,2013-03-28 23:50:00,
2013-03-28 16:55:00,75.3,28.8,29.77,SW,234,20.0,24.0,18,0.00,CLR,,0.00,WeatherDisplay:10.37,2013-03-28 23:55:00,
2013-03-28 17:00:00,74.5,30.8,29.77,WSW,239,16.0,27.0,20,0.00,CLR,,0.00,WeatherDisplay:10.37,2013-03-29 00:00:00,
2013-03-28 17:10:00,72.9,29.5,29.78,WSW,248,17.0,24.0,20,0.00,CLR,,0.00,WeatherDisplay:10.37,2013-03-29 00:10:00,
2013-03-28 17:15:00,72.0,28.7,29.79,WSW,242,17.0,25.0,20,0.00,CLR,,0.00,WeatherDisplay:10.37,2013-03-29 00:15:00,
2013-03-28 17:20:00,71.7,27.2,29.79,SW,234,20.0,24.0,19,0.00,CLR,,0.00,WeatherDisplay:10.37,2013-03-29 00:20:00,
2013-03-28 17:30:00,71.2,28.0,29.80,SW,232,18.0,23.0,20,0.00,CLR,,0.00,WeatherDisplay:10.37,2013-03-29 00:30:00,
2013-03-28 17:40:00,71.1,29.2,29.80,SW,221,17.0,23.0,21,0.00,CLR,,0.00,WeatherDisplay:10.37,2013-03-29 00:40:00,
2013-03-28 17:45:00,71.2,29.3,29.80,SW,221,16.0,24.0,21,0.00,CLR,,0.00,WeatherDisplay:10.37,2013-03-29 00:45:00,
2013-03-28 17:50:00,71.8,28.5,29.80,SW,222,17.0,24.0,20,0.00,CLR,,0.00,WeatherDisplay:10.37,2013-03-29 00:50:00,
2013-03-28 17:55:00,71.6,28.4,29.80,SW,226,18.0,24.0,20,0.00,CLR,,0.00,WeatherDisplay:10.37,2013-03-29 00:55:00,
2013-03-28 18:05:00,71.4,28.2,29.80,SW,221,15.0,21.0,20,0.00,CLR,,0.00,WeatherDisplay:10.37,2013-03-29 01:05:00,
2013-03-28 18:10:00,70.9,27.8,29.80,SW,216,18.0,23.0,20,0.00,CLR,,0.00,WeatherDisplay:10.37,2013-03-29 01:10:00,
2013-03-28 18:15:00,71.0,27.9,29.80,SW,216,13.0,20.0,20,0.00,CLR,,0.00,WeatherDisplay:10.37,2013-03-29 01:15:00,
2013-03-28 18:20:00,71.2,26.8,29.80,SW,217,13.0,15.0,19,0.00,CLR,,0.00,WeatherDisplay:10.37,2013-03-29 01:20:00,
2013-03-28 18:25:00,70.6,25.0,29.80,SSW,213,7.0,13.0,18,0.00,CLR,,0.00,WeatherDisplay:10.37,2013-03-29 01:25:00,
2013-03-28 18:30:00,70.6,26.3,29.81,SW,217,6.0,11.0,19,0.00,CLR,,0.00,WeatherDisplay:10.37,2013-03-29 01:30:00,
2013-03-28 18:40:00,70.1,24.6,29.82,SSW,212,6.0,12.0,18,0.00,CLR,,0.00,WeatherDisplay:10.37,2013-03-29 01:40:00,
2013-03-28 18:45:00,69.8,24.3,29.82,SSW,198,5.0,12.0,18,0.00,CLR,,0.00,WeatherDisplay:10.37,2013-03-29 01:45:00,
2013-03-28 18:50:00,69.8,23.0,29.82,SW,233,5.0,8.0,17,0.00,CLR,,0.00,WeatherDisplay:10.37,2013-03-29 01:50:00,
2013-03-28 18:55:00,69.8,23.0,29.82,West,271,6.0,9.0,17,0.00,CLR,,0.00,WeatherDisplay:10.37,2013-03-29 01:55:00,
2013-03-28 19:00:00,68.9,24.9,29.82,SW,225,9.0,18.0,19,0.00,CLR,,0.00,WeatherDisplay:10.37,2013-03-29 02:00:00,
2013-03-28 19:05:00,68.1,24.2,29.83,SSW,200,15.0,20.0,19,0.00,CLR,,0.00,WeatherDisplay:10.37,2013-03-29 02:05:00,
2013-03-28 19:10:00,68.1,24.2,29.83,SSW,199,10.0,17.0,19,0.00,CLR,,0.00,WeatherDisplay:10.37,2013-03-29 02:10:00,
2013-03-28 19:15:00,67.8,25.2,29.83,SSW,195,6.0,16.0,20,0.00,CLR,,0.00,WeatherDisplay:10.37,2013-03-29 02:15:00,
2013-03-28 19:20:00,67.6,25.1,29.83,South,184,9.0,17.0,20,0.00,CLR,,0.00,WeatherDisplay:10.37,2013-03-29 02:20:00,
2013-03-28 19:25:00,67.6,25.1,29.82,SSE,162,7.0,14.0,20,0.00,CLR,,0.00,WeatherDisplay:10.37,2013-03-29 02:25:00,
2013-03-28 19:30:00,67.8,24.0,29.83,South,183,8.0,14.0,19,0.00,CLR,,0.00,WeatherDisplay:10.37,2013-03-29 02:30:00,
2013-03-28 19:35:00,68.1,24.2,29.83,WSW,247,8.0,12.0,19,0.00,CLR,,0.00,WeatherDisplay:10.37,2013-03-29 02:35:00,
2013-03-28 19:40:00,67.9,24.1,29.83,West,262,13.0,21.0,19,0.00,CLR,,0.00,WeatherDisplay:10.37,2013-03-29 02:40:00,
2013-03-28 19:45:00,67.9,24.1,29.83,WSW,255,8.0,15.0,19,0.00,CLR,,0.00,WeatherDisplay:10.37,2013-03-29 02:45:00,
2013-03-28 19:50:00,67.9,22.8,29.83,WSW,252,5.0,10.0,18,0.00,CLR,,0.00,WeatherDisplay:10.37,2013-03-29 02:50:00,
2013-03-28 19:55:00,67.8,24.0,29.83,SW,223,1.0,4.0,19,0.00,CLR,,0.00,WeatherDisplay:10.37,2013-03-29 02:55:00,
2013-03-28 20:00:00,67.4,23.7,29.84,SSE,159,5.0,10.0,19,0.00,CLR,,0.00,WeatherDisplay:10.37,2013-03-29 03:00:00,
2013-03-28 20:10:00,67.0,24.5,29.84,South,187,6.0,17.0,20,0.00,CLR,,0.00,WeatherDisplay:10.37,2013-03-29 03:10:00,
2013-03-28 20:15:00,67.2,24.7,29.83,SSW,198,13.0,16.0,20,0.00,CLR,,0.00,WeatherDisplay:10.37,2013-03-29 03:15:00,
2013-03-28 20:20:00,66.9,25.7,29.84,SSW,211,0.0,12.0,21,0.00,CLR,,0.00,WeatherDisplay:10.37,2013-03-29 03:20:00,
2013-03-28 20:25:00,66.9,25.7,29.83,SW,214,1.0,7.0,21,0.00,CLR,,0.00,WeatherDisplay:10.37,2013-03-29 03:25:00,
2013-03-28 20:30:00,66.9,25.6,29.83,South,186,5.0,7.0,21,0.00,CLR,,0.00,WeatherDisplay:10.37,2013-03-29 03:30:00,
2013-03-28 20:40:00,66.0,26.1,29.83,SE,143,3.0,5.0,22,0.00,CLR,,0.00,WeatherDisplay:10.37,2013-03-29 03:40:00,
2013-03-28 20:45:00,66.0,26.0,29.83,SSE,166,7.0,12.0,22,0.00,CLR,,0.00,WeatherDisplay:10.37,2013-03-29 03:45:00,
2013-03-28 20:50:00,66.0,26.0,29.83,South,178,3.0,7.0,22,0.00,CLR,,0.00,WeatherDisplay:10.37,2013-03-29 03:50:00,
2013-03-28 20:55:00,66.0,26.0,29.83,SSW,193,2.0,10.0,22,0.00,CLR,,0.00,WeatherDisplay:10.37,2013-03-29 03:55:00,
2013-03-28 21:00:00,65.8,25.9,29.83,SSW,204,8.0,12.0,22,0.00,CLR,,0.00,WeatherDisplay:10.37,2013-03-29 04:00:00,
2013-03-28 21:05:00,66.0,24.9,29.83,SSW,211,10.0,16.0,21,0.00,CLR,,0.00,WeatherDisplay:10.37,2013-03-29 04:05:00,
2013-03-28 21:10:00,66.9,24.5,29.83,SW,225,8.0,13.0,20,0.00,CLR,,0.00,WeatherDisplay:10.37,2013-03-29 04:10:00,
2013-03-28 21:15:00,67.1,24.6,29.83,WSW,243,9.0,16.0,20,0.00,CLR,,0.00,WeatherDisplay:10.37,2013-03-29 04:15:00,
2013-03-28 21:20:00,66.0,26.0,29.83,SW,225,12.0,14.0,22,0.00,CLR,,0.00,WeatherDisplay:10.37,2013-03-29 04:20:00,
2013-03-28 21:25:00,64.7,26.0,29.83,SSW,204,6.0,12.0,23,0.00,CLR,,0.00,WeatherDisplay:10.37,2013-03-29 04:25:00,
2013-03-28 21:35:00,64.5,25.8,29.83,SW,218,13.0,17.0,23,0.00,CLR,,0.00,WeatherDisplay:10.37,2013-03-29 04:35:00,
2013-03-28 21:45:00,65.0,26.3,29.83,SW,219,12.0,16.0,23,0.00,CLR,,0.00,WeatherDisplay:10.37,2013-03-29 04:45:00,
2013-03-28 21:50:00,65.2,26.4,29.83,SW,229,13.0,17.0,23,0.00,CLR,,0.00,WeatherDisplay:10.37,2013-03-29 04:50:00,
2013-03-28 22:00:00,64.5,26.9,29.83,SSW,210,12.0,16.0,24,0.00,CLR,,0.00,WeatherDisplay:10.37,2013-03-29 05:00:00,
2013-03-28 22:10:00,64.6,27.0,29.84,SSW,203,9.0,13.0,24,0.00,CLR,,0.00,WeatherDisplay:10.37,2013-03-29 05:10:00,
2013-03-28 22:15:00,64.7,26.0,29.84,SSW,200,8.0,12.0,23,0.00,CLR,,0.00,WeatherDisplay:10.37,2013-03-29 05:15:00,
2013-03-28 22:20:00,64.5,26.9,29.84,SSW,199,7.0,13.0,24,0.00,CLR,,0.00,WeatherDisplay:10.37,2013-03-29 05:20:00,
2013-03-28 22:25:00,63.7,26.2,29.83,SSW,202,6.0,13.0,24,0.00,CLR,,0.00,WeatherDisplay:10.37,2013-03-29 05:25:00,
2013-03-28 22:30:00,63.4,26.9,29.83,SSW,197,10.0,16.0,25,0.00,CLR,,0.00,WeatherDisplay:10.37,2013-03-29 05:30:00,
2013-03-28 22:35:00,63.4,26.9,29.83,South,189,6.0,16.0,25,0.00,CLR,,0.00,WeatherDisplay:10.37,2013-03-29 05:35:00,
2013-03-28 22:40:00,63.1,26.7,29.83,SSW,194,9.0,16.0,25,0.00,CLR,,0.00,WeatherDisplay:10.37,2013-03-29 05:40:00,
2013-03-28 22:45:00,63.9,26.4,29.83,SSW,208,16.0,21.0,24,0.00,CLR,,0.00,WeatherDisplay:10.37,2013-03-29 05:45:00,
2013-03-28 22:50:00,63.9,26.4,29.83,SW,215,16.0,23.0,24,0.00,CLR,,0.00,WeatherDisplay:10.37,2013-03-29 05:50:00,
2013-03-28 23:00:00,64.0,26.4,29.83,SW,216,17.0,23.0,24,0.00,CLR,,0.00,WeatherDisplay:10.37,2013-03-29 06:00:00,
2013-03-28 23:05:00,63.4,26.9,29.83,SSW,213,14.0,23.0,25,0.00,CLR,,0.00,WeatherDisplay:10.37,2013-03-29 06:05:00,
2013-03-28 23:10:00,62.4,27.0,29.83,SSW,204,13.0,20.0,26,0.00,CLR,,0.00,WeatherDisplay:10.37,2013-03-29 06:10:00,
2013-03-28 23:20:00,62.3,27.9,29.84,SSW,207,13.0,20.0,27,0.00,CLR,,0.00,WeatherDisplay:10.37,2013-03-29 06:20:00,
2013-03-28 23:30:00,62.1,27.7,29.83,SSW,205,13.0,17.0,27,0.00,CLR,,0.00,WeatherDisplay:10.37,2013-03-29 06:30:00,
2013-03-28 23:40:00,62.6,27.2,29.84,SSW,202,12.0,18.0,26,0.00,CLR,,0.00,WeatherDisplay:10.37,2013-03-29 06:40:00,
2013-03-28 23:45:00,62.5,28.1,29.84,SSW,209,14.0,17.0,27,0.00,CLR,,0.00,WeatherDisplay:10.37,2013-03-29 06:45:00,
2013-03-28 23:50:00,62.6,28.1,29.84,SSW,210,13.0,21.0,27,0.00,CLR,,0.00,WeatherDisplay:10.37,2013-03-29 06:50:00,
2013-03-28 23:55:00,62.4,27.9,29.84,SSW,204,13.0,20.0,27,0.00,CLR,,0.00,WeatherDisplay:10.37,2013-03-29 06:55:00,